Location: doobydoo
(53.3403°N, 2.6908°W)
Time: 12:38:30
(UTC+00:00)

ISS - Pass Details

Date: 06 December 2021
Orbit: 413 x 422 km, 51.6° (Epoch: 28 January)

Event Time Altitude Azimuth Distance (km) Brightness Sun altitude
Rises 18:23:31 0° 276° (W) 2,387 1.4 -21.1°
Reaches altitude 10° 18:26:40 10° 245° (WSW) 1,513 0.1 -21.5°
Maximum altitude 18:28:04 12° 220° (SW) 1,385 -0.5 -21.8°
Drops below altitude 10° 18:29:28 10° 195° (SSW) 1,506 -0.7 -22.0°
Enters shadow 18:31:04 - 175° (S) 1,877 -0.4 -22.2°
